This demonstration page uses our WeatherBlox Daily Observations layout. Learn more.

39.92423, -83.80882

Hourly Observations for September 14, 2018

Temp ( °F °C ) Dew Point ( °F °C ) Humidity (%) Winds ( mph kmh ) Pressure ( in mb ) Visibility ( mi km ) Precip ( " mm )
12:56 am 00:56 Clear 67 19.4 65 18.3 93 93 N 5 7 30.11 1020 10 16.0934 0 0
1:56 am 01:56 Clear 66 18.9 65 18.3 96 96 NNE 5 7 30.11 1020 10 16.0934 0 0
2:56 am 02:56 Clear 65 18.3 64 17.8 97 97 ENE 3 6 30.11 1020 10 16.0934 0 0
3:56 am 03:56 Clear 64 17.8 64 17.8 100 100 Calm 30.11 1020 7 11.26538 0 0
4:52 am 04:52 Clear with Mist and Fog 64 18 64 18 100 100 NE 3 6 30.12 1020 1.75 2.816345 0 0
4:56 am 04:56 Clear with Mist and Fog 64 17.8 64 17.8 100 100 NE 3 6 30.12 1020 1.25 2.011675 0 0
4:58 am 04:58 Clear with Mist and Fog 63 17 63 17 100 100 NE 3 6 30.15 1021 0.75 1.207005 0 0
5:07 am 05:07 Clear with Mist and Fog 64 18 64 18 100 100 NNE 3 6 30.12 1020 1.25 2.011675 0 0
5:11 am 05:11 Clear with Mist and Fog 63 17 63 17 100 100 Calm 30.12 1020 4 6.43736 0 0
5:44 am 05:44 Clear with Mist and Fog 63 17 63 17 100 100 NNE 3 6 30.12 1020 2 3.21868 0 0
5:56 am 05:56 Clear with Mist and Fog 63 17.2 63 17.2 100 100 Calm 30.11 1020 4 6.43736 0 0
6:27 am 06:27 Clear with Mist and Fog 63 17 63 17 100 100 Calm 30.15 1021 2.5 4.02335 0 0
6:35 am 06:35 Clear with Mist and Fog 63 17 63 17 100 100 Calm 30.15 1021 4 6.43736 0 0
6:56 am 06:56 Mostly Clear with Mist and Fog 63 17.2 63 17.2 100 100 Calm 30.13 1020 2.5 4.02335 0 0
7:01 am 07:01 Mostly Cloudy with Mist and Fog 63 17 63 17 100 100 NE 5 7 30.15 1021 1 1.60934 0 0
7:03 am 07:03 Mostly Cloudy with Fog 63 17 63 17 100 100 NE 3 6 30.15 1021 0.5 0.80467 0 0
7:11 am 07:11 Mostly Cloudy with Fog 63 17 63 17 100 100 NE 3 6 30.15 1021 5 8.0467 0 0
7:56 am 07:56 Mostly Cloudy with Fog 64 17.8 64 17.8 100 100 NNE 3 6 30.14 1021 0.25 0.402335 0 0
7:59 am 07:59 Mostly Cloudy with Mist and Fog 64 18 64 18 100 100 NNE 3 6 30.15 1021 0.75 1.207005 0 0
8:01 am 08:01 Mostly Cloudy with Mist and Fog 64 18 64 18 100 100 NNE 5 7 30.15 1021 1.25 2.011675 0 0
8:07 am 08:07 Cloudy with Mist and Fog 64 18 64 18 100 100 NE 5 7 30.15 1021 0.75 1.207005 0 0
8:12 am 08:12 Cloudy with Fog 64 18 64 18 100 100 NE 5 7 30.15 1021 0.25 0.402335 0 0
8:31 am 08:31 Cloudy with Fog 66 19 66 19 100 100 Calm 30.12 1020 0.5 0.80467 0 0
8:38 am 08:38 Cloudy with Mist and Fog 66 19 66 19 100 100 NE 3 6 30.12 1020 0.75 1.207005 0 0
8:44 am 08:44 Cloudy with Fog 66 19 66 19 100 100 NE 5 7 30.12 1020 0.25 0.402335 0 0
8:56 am 08:56 Cloudy with Fog 67 19.4 67 19.4 100 100 NE 6 9 30.15 1021 0.25 0.402335 0 0
9:53 am 09:53 Cloudy with Fog 70 21 70 21 100 100 N 3 6 30.12 1020 0.5 0.80467 0 0
9:56 am 09:56 Cloudy with Fog 70 21.1 70 21.1 100 100 NNE 3 6 30.14 1021 0.5 0.80467 0 0
10:02 am 10:02 Cloudy with Mist and Fog 70 21 70 21 100 100 N 3 6 30.12 1020 1 1.60934 0 0
10:10 am 10:10 Cloudy with Mist and Fog 70 21 70 21 100 100 N 3 6 30.12 1020 1.5 2.41401 0 0
10:29 am 10:29 Cloudy with Mist and Fog 72 22 72 22 100 100 N 3 6 30.12 1020 3 4.82802 0 0
10:56 am 10:56 Mostly Sunny 75 23.9 72 22.2 90 90 N 5 7 30.14 1021 10 16.0934 0 0
11:56 am 11:56 Sunny 80 26.7 73 22.8 79 79 N 7 11 30.13 1020 10 16.0934 0 0
12:30 pm 12:30 Mostly Cloudy 81 27 73 23 79 79 VRB 6 9 30.09 1019 10 16.0934 0 0
12:48 pm 12:48 Mostly Cloudy 82 28 73 23 74 74 N 8 13 30.09 1019 10 16.0934 0 0
12:56 pm 12:56 Mostly Cloudy 81 27.2 71 21.7 72 72 NE 3 6 30.12 1020 10 16.0934 0 0
1:56 pm 13:56 Mostly Sunny 84 28.9 71 21.7 65 65 N 5 7 30.11 1020 10 16.0934 0 0
2:56 pm 14:56 Sunny 86 30 70 21.1 59 59 NE 8 13 30.09 1019 10 16.0934 0 0
3:56 pm 15:56 Mostly Cloudy 85 29.4 73 22.8 68 68 N 10 17 30.07 1018 10 16.0934 0 0
4:56 pm 16:56 Sunny 85 29.4 72 22.2 65 65 N 6 9 30.07 1018 10 16.0934 0 0
5:56 pm 17:56 Sunny 84 28.9 72 22.2 67 67 N 8 13 30.07 1018 10 16.0934 0 0
6:56 pm 18:56 Sunny 82 27.8 71 21.7 69 69 N 8 13 30.07 1018 10 16.0934 0 0
7:56 pm 19:56 Clear 76 24.4 70 21.1 82 82 N 6 9 30.08 1019 10 16.0934 0 0
8:56 pm 20:56 Clear 74 23.3 71 21.7 91 91 NNE 7 11 30.09 1019 10 16.0934 0 0
9:56 pm 21:56 Clear 75 23.9 71 21.7 88 88 NE 9 15 30.09 1019 10 16.0934 0 0
10:56 pm 22:56 Partly Cloudy 73 22.8 71 21.7 94 94 NNE 9 15 30.09 1019 10 16.0934 0 0
11:56 pm 23:56 Mostly Clear 72 22.2 70 21.1 94 94 NE 6 9 30.1 1019 10 16.0934 0 0

Powered by AerisWeather